When you browse on this site, cookies collect data to enhance your experience and personalize the content and advertising you see.
Visit our Privacy Policy to learn more. By continuing to use the site, you agree to this use of cookies and data.
  • In Romania
  • List of Countries
  • For 7 days
  • Water Temperature
  • Weather Map
  • Weather Widgets
  • user-avatar
    Login

    Hourly Weather Saint-Leu-la-Foret

    Today, 6 June, Saturday

    Time Temperature Precipitation Wind Pressure Humidity
    00:00 +12°C° 0 mm 3 mps 743 mmHg 86%
    01:00 +11°C° 0.1 mm 3 mps 743 mmHg 85%
    02:00 +11°C° 0.1 mm 3 mps 743 mmHg 84%
    03:00 +11°C° 0.1 mm 4 mps 742 mmHg 83%
    04:00 +11°C° 0 mm 4 mps 743 mmHg 81%
    05:00 +11°C° 0 mm 4 mps 743 mmHg 78%
    06:00 +11°C° 0 mm 4 mps 743 mmHg 76%
    07:00 +12°C° 0 mm 5 mps 743 mmHg 69%
    08:00 +13°C° 0 mm 5 mps 744 mmHg 61%
    09:00 +14°C° 0 mm 5 mps 744 mmHg 54%
    10:00 +15°C° 0 mm 6 mps 744 mmHg 51%
    11:00 +16°C° 0 mm 6 mps 744 mmHg 49%
    12:00 +16°C° 0 mm 6 mps 745 mmHg 46%
    13:00 +16°C° 0.1 mm 6 mps 745 mmHg 47%
    14:00 +16°C° 0.1 mm 6 mps 745 mmHg 49%
    15:00 +16°C° 0.1 mm 6 mps 745 mmHg 50%
    16:00 +15°C° 0 mm 6 mps 745 mmHg 51%
    17:00 +15°C° 0 mm 5 mps 745 mmHg 52%
    18:00 +14°C° 0 mm 5 mps 745 mmHg 53%
    19:00 +13°C° 0 mm 5 mps 745 mmHg 57%
    20:00 +11°C° 0 mm 4 mps 745 mmHg 60%
    21:00 +10°C° 0 mm 4 mps 746 mmHg 63%
    22:00 +10°C° 0 mm 4 mps 746 mmHg 66%
    23:00 +8°C° 0 mm 4 mps 746 mmHg 70%

    Tomorrow, 7 June, Sunday

    Time Temperature Precipitation Wind Pressure Humidity
    00:00 +8°C° 0 mm 4 mps 746 mmHg 73%
    01:00 +8°C° 0 mm 4 mps 746 mmHg 76%
    02:00 +8°C° 0 mm 4 mps 746 mmHg 78%
    03:00 +8°C° 0 mm 4 mps 746 mmHg 81%
    04:00 +8°C° 0 mm 4 mps 747 mmHg 81%
    05:00 +10°C° 0 mm 3 mps 747 mmHg 81%
    06:00 +10°C° 0 mm 3 mps 747 mmHg 81%
    07:00 +12°C° 0 mm 3 mps 747 mmHg 76%
    08:00 +13°C° 0 mm 3 mps 748 mmHg 71%
    09:00 +16°C° 0 mm 3 mps 748 mmHg 66%
    10:00 +17°C° 0.1 mm 3 mps 748 mmHg 62%
    11:00 +18°C° 0.1 mm 3 mps 748 mmHg 58%
    12:00 +19°C° 0.1 mm 3 mps 749 mmHg 54%
    13:00 +19°C° 0.1 mm 3 mps 748 mmHg 55%
    14:00 +19°C° 0.1 mm 2 mps 748 mmHg 55%
    15:00 +19°C° 0.1 mm 2 mps 748 mmHg 56%
    16:00 +19°C° 0.2 mm 2 mps 748 mmHg 58%
    17:00 +18°C° 0.2 mm 2 mps 748 mmHg 60%
    18:00 +18°C° 0.2 mm 2 mps 749 mmHg 62%
    19:00 +17°C° 0.2 mm 2 mps 749 mmHg 68%
    20:00 +15°C° 0.2 mm 2 mps 750 mmHg 74%
    21:00 +14°C° 0.2 mm 2 mps 750 mmHg 80%
    22:00 +13°C° 0 mm 2 mps 750 mmHg 81%
    23:00 +13°C° 0 mm 2 mps 750 mmHg 83%

    Day after tomorrow, 8 June, Monday

    Time Temperature Precipitation Wind Pressure Humidity
    00:00 +12°C° 0 mm 2 mps 750 mmHg 84%
    01:00 +10°C° 0 mm 2 mps 750 mmHg 84%
    02:00 +10°C° 0 mm 2 mps 750 mmHg 84%
    03:00 +10°C° 0 mm 2 mps 750 mmHg 85%
    04:00 +10°C° 0 mm 2 mps 750 mmHg 85%
    05:00 +12°C° 0 mm 2 mps 751 mmHg 85%
    06:00 +12°C° 0 mm 2 mps 751 mmHg 85%
    07:00 +14°C° 0 mm 2 mps 751 mmHg 78%
    08:00 +15°C° 0 mm 2 mps 751 mmHg 72%
    09:00 +17°C° 0 mm 2 mps 752 mmHg 65%
    10:00 +18°C° 0.2 mm 3 mps 752 mmHg 62%
    11:00 +19°C° 0.2 mm 3 mps 752 mmHg 59%
    12:00 +20°C° 0.2 mm 4 mps 751 mmHg 56%
    13:00 +20°C° 0.2 mm 4 mps 751 mmHg 55%
    14:00 +20°C° 0.2 mm 4 mps 752 mmHg 55%
    15:00 +20°C° 0.2 mm 5 mps 752 mmHg 55%
    16:00 +19°C° 0.1 mm 5 mps 752 mmHg 59%
    17:00 +17°C° 0.1 mm 5 mps 752 mmHg 63%
    18:00 +16°C° 0.1 mm 5 mps 752 mmHg 67%
    19:00 +15°C° 0 mm 5 mps 752 mmHg 70%
    20:00 +13°C° 0 mm 5 mps 753 mmHg 73%
    21:00 +12°C° 0 mm 5 mps 753 mmHg 76%
    22:00 +11°C° 0 mm 4 mps 754 mmHg 77%
    23:00 +10°C° 0 mm 4 mps 754 mmHg 77%

    9 June, Tuesday

    Time Temperature Precipitation Wind Pressure Humidity
    00:00 +8°C° 0 mm 4 mps 754 mmHg 78%
    01:00 +7°C° 0 mm 4 mps 754 mmHg 79%
    02:00 +8°C° 0 mm 3 mps 754 mmHg 81%
    03:00 +7°C° 0 mm 3 mps 754 mmHg 83%
    04:00 +8°C° 0 mm 3 mps 754 mmHg 81%
    05:00 +7°C° 0 mm 4 mps 754 mmHg 80%
    06:00 +8°C° 0 mm 4 mps 754 mmHg 78%
    07:00 +11°C° 0 mm 4 mps 755 mmHg 74%
    08:00 +13°C° 0 mm 4 mps 755 mmHg 69%
    09:00 +15°C° 0 mm 4 mps 755 mmHg 65%
    10:00 +15°C° 0 mm 4 mps 755 mmHg 63%
    11:00 +17°C° 0 mm 4 mps 755 mmHg 60%
    12:00 +18°C° 0 mm 4 mps 755 mmHg 58%
    13:00 +18°C° 0 mm 4 mps 755 mmHg 57%
    14:00 +18°C° 0 mm 4 mps 754 mmHg 57%
    15:00 +18°C° 0 mm 4 mps 754 mmHg 56%
    16:00 +18°C° 0 mm 4 mps 754 mmHg 58%
    17:00 +17°C° 0 mm 4 mps 754 mmHg 59%
    18:00 +17°C° 0 mm 4 mps 754 mmHg 61%
    19:00 +15°C° 0 mm 4 mps 755 mmHg 66%
    20:00 +13°C° 0 mm 4 mps 755 mmHg 72%
    21:00 +12°C° 0 mm 4 mps 755 mmHg 77%
    22:00 +11°C° 0 mm 3 mps 755 mmHg 78%
    23:00 +10°C° 0 mm 3 mps 755 mmHg 80%

    10 June, Wednesday

    Time Temperature Precipitation Wind Pressure Humidity
    00:00 +9°C° 0 mm 3 mps 755 mmHg 81%
    01:00 +8°C° 0 mm 2 mps 755 mmHg 81%
    02:00 +8°C° 0 mm 2 mps 755 mmHg 81%
    03:00 +7°C° 0 mm 2 mps 755 mmHg 82%
    04:00 +8°C° 0 mm 2 mps 755 mmHg 79%
    05:00 +9°C° 0 mm 2 mps 755 mmHg 77%
    06:00 +9°C° 0 mm 2 mps 754 mmHg 74%
    07:00 +12°C° 0 mm 2 mps 754 mmHg 68%
    08:00 +14°C° 0 mm 2 mps 754 mmHg 62%
    09:00 +16°C° 0 mm 3 mps 754 mmHg 56%
    10:00 +17°C° 0 mm 2 mps 754 mmHg 52%
    11:00 +18°C° 0 mm 2 mps 754 mmHg 48%
    12:00 +20°C° 0 mm 2 mps 753 mmHg 44%
    13:00 +20°C° 0 mm 2 mps 753 mmHg 44%
    14:00 +20°C° 0 mm 3 mps 752 mmHg 45%
    15:00 +20°C° 0 mm 3 mps 752 mmHg 46%
    16:00 +19°C° 0 mm 3 mps 752 mmHg 52%
    17:00 +18°C° 0 mm 3 mps 752 mmHg 57%
    18:00 +18°C° 0 mm 3 mps 751 mmHg 62%
    19:00 +17°C° 0 mm 2 mps 751 mmHg 67%
    20:00 +16°C° 0 mm 1 mps 751 mmHg 72%
    21:00 +14°C° 0 mm 1 mps 751 mmHg 77%
    22:00 +14°C° 0 mm 1 mps 751 mmHg 77%
    23:00 +14°C° 0 mm 1 mps 751 mmHg 78%

    11 June, Thursday

    Time Temperature Precipitation Wind Pressure Humidity
    00:00 +13°C° 0 mm 1 mps 750 mmHg 78%
    01:00 +13°C° 0 mm 2 mps 750 mmHg 79%
    02:00 +13°C° 0 mm 2 mps 749 mmHg 80%
    03:00 +12°C° 0 mm 2 mps 749 mmHg 81%
    04:00 +12°C° 0 mm 3 mps 748 mmHg 78%
    05:00 +12°C° 0 mm 4 mps 748 mmHg 76%
    06:00 +13°C° 0 mm 4 mps 747 mmHg 74%
    07:00 +13°C° 0 mm 5 mps 746 mmHg 72%
    08:00 +14°C° 0 mm 6 mps 746 mmHg 69%
    09:00 +14°C° 0 mm 6 mps 745 mmHg 67%
    10:00 +14°C° 0.1 mm 7 mps 745 mmHg 70%
    11:00 +14°C° 0.1 mm 7 mps 744 mmHg 73%
    12:00 +14°C° 0.1 mm 7 mps 743 mmHg 76%
    13:00 +14°C° 2.7 mm 6 mps 743 mmHg 78%
    14:00 +13°C° 2.7 mm 5 mps 743 mmHg 80%
    15:00 +13°C° 2.7 mm 4 mps 743 mmHg 83%
    16:00 +13°C° 0.3 mm 4 mps 743 mmHg 80%
    17:00 +14°C° 0.3 mm 4 mps 743 mmHg 77%
    18:00 +14°C° 0.3 mm 3 mps 743 mmHg 75%
    19:00 +13°C° 0.3 mm 3 mps 743 mmHg 77%
    20:00 +12°C° 0.3 mm 3 mps 744 mmHg 80%
    21:00 +11°C° 0.3 mm 3 mps 744 mmHg 83%
    22:00 +10°C° 0.1 mm 3 mps 744 mmHg 83%
    23:00 +9°C° 0.1 mm 3 mps 743 mmHg 84%
    Show more